Powrót do katalogu

SL-16 DEB

AktywnyLEO
NORAD 29100·DEBRIS·🇷🇺 Russia

Wystrzelony Mar 26, 1993 z Baikonur Cosmodrome

Loading…

Następne Przeloty (najbliższe 24 godziny)

TLE

ŚwieżeSource: Space-Track

Epoka: Sep 14, 2026, 09:14 UTC

1 29100U 93016AP  26257.38531974  .00000300  00000-0  18453-3 0  9990
2 29100  70.7249 243.8693 0076915 308.2992  51.1226 14.12400166244012

Śledź SL-16 DEB w czasie rzeczywistym z AllMySat

Download on the App Store